Tracking 20083 objects as of 9-Dec-2019
HD Live streaming from Space Station
objects crossing your sky now

FENGYUN 1C DEB

Track FENGYUN 1C DEB now!
10-day predictions


NORAD ID: 32317
Int'l Code: 1999-025CXJ
Perigee: 697.3 km
Apogee: 910.7 km
Inclination: 98.0 °
Period: 100.8 minutes
Semi major axis: 7175 km
RCS: 0.0099 m2 (small)
Launch date: May 10, 1999
Source: People's Republic of China (PRC)
Launch site: Taiyaun Space Center, China (TSC)

Note: This is SATELLITE DEBRIS
aabbcc
Your satellite tracking list
Your tracking list is empty




NASA's NSSDC Master Catalog

Two Line Element Set (TLE):
1 32317U 99025CXJ 19340.68178206  .00001071  00000-0  39392-3 0  9994
2 32317  98.0184 293.8767 0148739 127.8885 233.5858 14.28460268640310
Source of the keplerian elements: AFSPC